User: anonymous   Login
Location: Grossmotten
(48.5500°N, 15.3833°E)
Time: 21:39:16
(UTC+00:00)
Language:

Helios 1A Rocket - Orbit

View from above orbital plane
View from above orbital plane
View from above satellite
View from above satellite

Ground track
Ground track

The orbit data is extracted from the following two-line orbital elements,

1 23608U 95033D   20027.24694996 -.00000243 +00000-0 -15179-4 0  9997
2 23608 098.3227 029.3834 0016610 351.6051 008.4889 14.97189259330161
Epoch (UTC): 27 January 2020 05:55:36
Eccentricity: 0.0016610
inclination: 98.3227°
perigee height: 564 km
apogee height: 587 km
right ascension of ascending node: 29.3834°
argument of perigee: 351.6051°
revolutions per day: 14.97189259
mean anomaly at epoch: 8.4889°
orbit number at epoch: 33016

The dashed part of the orbit path shows where the satellite is in the earth's shadow,  

DLR